{"data":{"norad_id":66622,"epoch":"2026-05-24T23:19:17.522976Z","epoch_age_seconds":67564,"freshness":"FRESH","line1":"1 66622U 25271F   26144.97173059  .00020594  00000+0  70486-3 0  9994","line2":"2 66622  53.1567 145.7668 0001028  91.6932 268.4186 15.30230905 29249","mean_motion":15.30230905,"eccentricity":0.0001028,"inclination_deg":53.1567,"raan_deg":145.7668,"arg_perigee_deg":91.6932,"mean_anomaly_deg":268.4186,"bstar":0.00070486,"rev_number":2924,"period_min":94.103445126799,"perigee_km":474.41827910619,"apogee_km":475.82730931988,"semimajor_km":6853.259794213,"source":"CELESTRAK","updated_at":"2026-05-25T13:38:21.294945Z"}}